Chattanooga, TN

1:22 PM EST on January 23, 2018 (GMT -0500)
Lovell

Weather History for KCHA - July, 2014

Change the Weather History Date:

Tuesday, July 29, 2014

  Actual Average Record
Temperature  
Mean Temperature 76 °F 80 °F  
Max Temperature 89 °F 90 °F 105 °F (1952)
Min Temperature 63 °F 70 °F 61 °F (1994)
Cooling Degree Days 11 15  
Month to date cooling degree days 386 431  
Year to date cooling degree days 1045 972  
Since 1 June cooling degree days 787 776  
Growing Degree Days 22 (Base 50)    
Moisture  
Dew Point 55 °F    
Average Humidity 60    
Maximum Humidity 84    
Minimum Humidity 35    
Precipitation  
Precipitation 0.00 in 0.15 in 1.58 in (1963)
Month to date precipitation 2.57 4.62  
Year to date precipitation 24.85 31.49  
Snow  
Snow 0.00 in - - ()
Month to date snowfall 0.0  
Since 1 June snowfall 0.0  
Snow Depth 0.00 in    
Sea Level Pressure  
Sea Level Pressure 30.02 in    
Wind  
Wind Speed 8 mph (NNW)    
Max Wind Speed 21 mph    
Max Gust Speed 24 mph    
Visibility 10 miles    
Events      
T = Trace of Precipitation, MM = Missing Value Source: NWS Daily Summary

Daily Weather History Graph

Daily Weather History Graph

Search for Another Location

Airport or City:

Trip Planner

Search our weather history database for the weather conditions in past years. The results will help you decide how hot, cold, wet, or windy it might be!

Date:

Astronomy

Jul. 29, 2014 Rise Set
Actual Time 6:47 AM EDT 8:46 PM EDT
Civil Twilight 6:19 AM EDT 9:14 PM EDT
Nautical Twilight 5:45 AM EDT 9:48 PM EDT
Astronomical Twilight 5:09 AM EDT 10:24 PM EDT
Moon 9:15 AM EDT (7/29) 10:07 PM EDT (7/29)
Length of Visible Light 14h 54m
Length of Day
13h 58m
Waxing Crescent, 7% of the Moon is Illuminated
Jul 29
Waxing Crescent
Aug 3
First Quarter
Aug 10
Full
Aug 17
Last Quarter
Aug 25
New

Hourly Weather History & Observations

Time (EDT) Temp. Dew Point Humidity Pressure Visibility Wind Dir Wind Speed Gust Speed Precip Events Conditions
12:53 AM 71.1 °F 60.1 °F 68% 29.99 in 10.0 mi Calm Calm - N/A   Clear
1:53 AM 71.1 °F 59.0 °F 66% 29.99 in 10.0 mi Calm Calm - N/A   Clear
2:53 AM 69.1 °F 59.0 °F 70% 29.98 in 10.0 mi Calm Calm - N/A   Clear
3:53 AM 66.9 °F 59.0 °F 76% 29.97 in 10.0 mi WNW 4.6 mph - N/A   Clear
4:53 AM 66.0 °F 59.0 °F 78% 29.98 in 10.0 mi NW 6.9 mph - N/A   Clear
5:53 AM 64.9 °F 59.0 °F 81% 29.98 in 10.0 mi NNW 5.8 mph - N/A   Clear
6:53 AM 64.9 °F 57.9 °F 78% 29.99 in 10.0 mi NNW 8.1 mph - N/A   Partly Cloudy
7:53 AM 66.9 °F 59.0 °F 76% 30.00 in 10.0 mi NW 5.8 mph - N/A   Partly Cloudy
8:53 AM 70.0 °F 59.0 °F 68% 30.01 in 10.0 mi NNW 8.1 mph - N/A   Partly Cloudy
9:53 AM 71.6 °F 59.0 °F 64% 30.04 in 10.0 mi NNW 6.9 mph - N/A   Scattered Clouds
10:53 AM 75.0 °F 54.0 °F 48% 30.04 in 10.0 mi North 10.4 mph - N/A   Scattered Clouds
11:53 AM 75.9 °F 55.0 °F 48% 30.05 in 10.0 mi North 9.2 mph - N/A   Scattered Clouds
12:53 PM 77.0 °F 53.1 °F 43% 30.04 in 10.0 mi NNW 9.2 mph - N/A   Scattered Clouds
1:53 PM 78.1 °F 53.1 °F 42% 30.03 in 10.0 mi North 13.8 mph - N/A   Scattered Clouds
2:53 PM 79.0 °F 51.1 °F 38% 30.02 in 10.0 mi Variable 3.5 mph - N/A   Scattered Clouds
3:53 PM 80.6 °F 51.8 °F 37% 30.03 in 10.0 mi North 12.7 mph - N/A   Scattered Clouds
4:53 PM 80.1 °F 51.1 °F 36% 30.02 in 10.0 mi North 16.1 mph - N/A   Scattered Clouds
5:53 PM 79.0 °F 48.0 °F 34% 30.03 in 10.0 mi NNW 13.8 mph - N/A   Scattered Clouds
6:53 PM 77.0 °F 51.1 °F 40% 30.04 in 10.0 mi NNW 15.0 mph - N/A   Scattered Clouds
7:53 PM 75.0 °F 50.0 °F 41% 30.04 in 10.0 mi NNW 11.5 mph - N/A   Partly Cloudy
8:53 PM 72.0 °F 52.0 °F 49% 30.04 in 10.0 mi North 8.1 mph - N/A   Clear
9:53 PM 68.0 °F 54.0 °F 61% 30.06 in 10.0 mi NW 5.8 mph - N/A   Clear
10:53 PM 66.0 °F 55.0 °F 68% 30.06 in 10.0 mi NW 5.8 mph - N/A   Clear
11:53 PM 64.9 °F 55.0 °F 70% 30.07 in 10.0 mi West 4.6 mph - N/A   Clear